Location: Newark
(19.2431°N, 110.4642°E)
Time: 22:38:58
(UTC+00:00)

N. Korean satellite - Visible Passes

Search period start: 19 August 2019 00:00
Search period end: 29 August 2019 00:00
Orbit: 457 x 507 km, 97.2° (Epoch: 18 August)

Date Brightness Start Highest point End Pass type
(mag) Time Alt. Az. Time Alt. Az. Time Alt. Az.
19 Aug 9.3 21:49:55 10° NE 21:52:45 22° E 21:55:31 10° SSE visible
23 Aug 9.6 21:43:05 10° NE 21:45:28 17° E 21:47:48 10° SE visible
27 Aug 9.8 21:36:26 10° ENE 21:38:09 13° E 21:39:51 10° SE visible
